Location: Aldenham
(51.6667°N, 0.3500°W)
Time: 04:28:21
(UTC+00:00)

BlueWalker 3 - Visible Passes

Search period start: 17 January 2026 00:00
Search period end: 27 January 2026 00:00
Orbit: 451 x 463 km, 53.2° (Epoch: 16 January)

Date Brightness Start Highest point End Pass type
(mag) Time Alt. Az. Time Alt. Az. Time Alt. Az.
20 Jan 4.8 19:33:24 10° SSW 19:33:25 10° SSW 19:33:25 10° SSW visible
21 Jan 3.7 18:58:16 10° SSW 18:59:50 21° S 18:59:50 21° S visible
22 Jan 3.1 18:23:11 10° SSW 18:26:07 24° SE 18:26:10 24° SE visible
22 Jan 5.0 19:59:41 10° WSW 19:59:55 12° WSW 19:59:55 12° WSW visible
23 Jan 3.5 17:48:11 10° S 17:50:50 20° SE 17:52:26 15° ESE visible
23 Jan 3.6 19:24:20 10° WSW 19:26:11 28° WSW 19:26:11 28° WSW visible
24 Jan 3.8 17:13:16 10° S 17:15:34 16° SE 17:17:51 10° E visible
24 Jan 1.9 18:49:00 10° WSW 18:52:22 61° S 18:52:22 61° S visible
25 Jan 2.0 18:13:41 10° SW 18:17:11 53° SSE 18:18:30 32° E visible
25 Jan 4.4 19:51:06 10° W 19:52:14 19° W 19:52:14 19° W visible
26 Jan 2.3 17:38:24 10° SW 17:41:50 45° SSE 17:44:35 15° E visible
26 Jan 2.7 19:15:40 10° W 19:18:20 46° W 19:18:20 46° W visible
